Tracking 19245 objects as of 17-Aug-2018
HD Live streaming from Space Station
objects crossing your sky now

NOAA 16 DEB

Track NOAA 16 DEB now!
10-day predictions


NORAD ID: 41264
Int'l Code: 2000-055FQ
Perigee: 856.9 km
Apogee: 860.0 km
Inclination: 98.8 °
Period: 102.0 minutes
Semi major axis: 7229 km
RCS: Unknown
Launch date: September 21, 2000
Source: United States (US)
Launch site: AIR FORCE WESTERN TEST RANGE (AFWTR)

Note: This is SATELLITE DEBRIS
aabbcc
Your satellite tracking list
Your tracking list is empty




NASA's NSSDC Master Catalog

Two Line Element Set (TLE):
1 41264U 00055FQ  18229.42929164  .00000407  00000-0  24469-3 0  9995
2 41264  98.8225 298.0346 0002191  78.5550 281.5868 14.12357587136728
Source of the keplerian elements: AFSPC